COSMOS 1275 DEB, 39956

Orbit data source: Space-Track

COSMOS 1275 DEB, 39956 is space debris in LEO originally from a launch on Thu, 04 Jun 1981 UTC launched from the Plesetsk Missile And Space Complex (PKMTR). Debris objects in space refer to the collection of defunct objects orbiting the Earth. Examples of debris include non-operational satellites, rocket bodies, and fragments generated from explosions, collisions, or faulty payload assembly.

Loading next visibility...
Identifier
39956, 1981-053NS
Orbit
LEO
Country
Flag of CISCIS
Related business
Manufacturer
Unknown
Mission
Spacecraft
Bus & Motor
Unknown
Mass
Unknown
Launch date (UTC)
1981-06-04 (45 years ago)
Launch vehicle
Unknown
Launch site
Plesetsk Missile And Space Complex (PKMTR)
Object type
Payload
Rocket body
Debris
Shape & HBR
Unknown shape, 0.1 m
Radar Cross Section
Medium (>0.1 m² and <1 m²)

Expand to show TLE details & history
Last TLE update: 17 hours ago

TLE from 17 hours ago
0 COSMOS 1275 DEB
1 39956U 81053NS  26236.40309898  .00000846  00000-0  79776-3 0  9996
2 39956  83.0154 222.7538 0123121 100.4502 261.0557 13.76803663611698
Epoch: 2026-08-24T09:40Z
TLE epoch observation values (Epoch: 2026-08-24T09:40:27.751Z)
Latitude
-0.00004°
Longitude
104.95286°
Altitude
993.314 km
Speed
7.347 km/s
True Right ascension
14h 51m 00s
True Declination
0° 00' 00"
Sunlit
Object was in daylight at epoch
Visualization orbit readout
Latitude
Unknown
Longitude
Unknown
Altitude
Unknown
Speed
Unknown
Apparent Right ascension
Unknown
Apparent Declination
Unknown
Sunlit
N/A
Visualization observer readout
Local Sidereal Time
17:30:44
Azimuth
Unknown
Elevation
Unknown
Doppler factor
Unknown
Orbital elements
Apogee altitude
1,062.889 km
Perigee altitude
881.888 km
Semi-major axis
7,350.526 km
Eccentricity
0.01231
Inclination
83.0154°
RAAN
222.7538°
Arg. of periapsis
100.4502°
True anomaly
259.66546°
Mean anomaly
261.0557°
Eccentric anomaly
260.36023°
Mean motion
3.44402 °/min
Orbital period
104.53 mins
BSTAR
0.00079776
Loading maneuver chart data...
Computing Atmospheric mass density...
Loading historical data...
Loading historical data...
Loading historical data...
Loading historical data...
Loading historical data...
Loading historical data...
Loading historical data...

Documentation

Showing up to 5 results
|